Probability
100 100 100 97 3 0 0 0 0 0 0 0 0 0 0 0 0 0 3 35 13 52 100 100 100 100 100 100 100 100 100 94 94 94 90 90 87 94 100 97 97 97 94 97 100 100 100 100 100
100 100 100 32 0 0 0 0 0 0 0 0 0 0 0 3 0 23 29 32 19 71 100 100 100 100 100 100 100 100 97 94 90 90 90 81 90 90 84 90 90 90 90 97 97 97 97 100 100
100 100 97 29 0 0 0 0 0 0 0 0 0 0 0 0 3 16 29 29 29 68 94 100 100 100 100 100 100 100 97 94 90 90 87 84 84 87 84 87 84 81 84 87 94 90 90 90 94
94 90 32 6 0 0 0 0 0 0 0 0 0 0 0 0 3 39 32 26 23 61 97 100 100 100 100 100 100 100 100 90 84 87 87 74 71 71 68 71 71 65 68 71 84 87 87 90 90
77 35 6 0 0 0 0 0 0 0 0 0 0 0 0 0 48 48 29 23 26 61 100 100 100 100 100 100 100 100 100 87 84 87 74 68 65 48 48 48 42 52 55 48 61 84 84 84 87
35 6 0 0 0 0 0 0 0 0 0 0 0 0 0 3 55 55 29 32 42 74 97 100 100 100 100 100 100 100 100 100 87 84 71 68 52 32 39 32 29 26 32 32 55 68 71 77 84
19 16 0 0 0 0 0 0 0 0 0 0 0 0 0 0 6 52 45 52 65 65 90 100 100 100 100 100 100 100 100 100 100 87 77 58 55 32 23 26 23 10 13 19 26 48 58 61 77
6 0 0 0 0 0 0 0 0 0 0 0 0 0 0 0 0 13 52 71 74 58 84 100 100 100 100 100 100 100 100 97 97 94 81 61 55 42 19 13 16 6 3 6 16 29 35 55 61
0 0 0 0 0 0 0 0 0 0 0 0 0 0 0 0 0 6 39 84 74 58 58 84 97 87 90 100 100 100 100 100 100 97 94 77 26 6 13 0 10 6 0 0 6 10 29 32 35
0 0 0 0 0 0 0 0 0 0 0 0 0 0 0 0 0 10 26 81 81 74 48 32 48 68 68 81 97 94 97 90 81 52 58 39 0 0 3 0 10 10 0 3 6 10 19 29 0
0 0 0 0 0 0 0 0 0 0 0 0 0 0 0 0 0 0 10 48 68 74 61 39 26 26 52 52 65 68 55 48 35 26 16 10 0 0 0 0 10 10 3 0 0 6 3 0 0
0 0 0 0 0 0 0 0 0 0 0 0 0 0 0 0 0 0 3 16 29 45 39 35 29 19 16 29 58 35 23 26 23 19 10 0 0 0 0 0 0 0 0 0 0 0 0 0 0
0 0 0 0 0 0 0 0 0 0 0 0 0 0 0 0 0 0 0 3 6 16 42 39 26 16 13 16 32 29 23 23 19 10 10 0 0 0 0 0 0 0 0 0 0 0 0 0 0
0 0 0 0 0 0 0 0 0 0 0 0 0 0 0 0 0 0 0 0 0 0 13 26 32 26 23 32 29 29 19 19 6 3 6 0 0 0 0 0 0 0 0 0 0 0 0 0 0
0 0 0 0 0 0 0 0 0 0 0 0 0 0 0 0 0 0 0 0 0 0 0 3 23 23 13 19 26 26 13 6 3 3 3 3 0 0 0 0 0 0 0 0 0 0 0 0 0
0 0 0 0 0 0 0 0 0 0 0 0 0 0 0 0 0 0 0 0 0 0 0 0 3 6 6 13 16 16 16 3 3 3 3 3 0 0 0 0 0 0 0 0 0 0 0 0 0
0 0 0 0 0 0 0 0 0 0 0 0 0 0 0 0 0 0 3 0 0 0 0 0 0 0 0 0 10 6 10 10 6 3 3 3 3 0 0 0 0 0 0 0 0 0 0 0 0
0 0 0 0 0 0 0 0 0 0 0 0 0 0 0 0 0 0 0 0 0 0 0 0 0 3 3 3 3 0 0 10 6 10 10 3 3 0 0 0 0 0 0 0 0 0 0 0 0
0 0 0 0 0 0 0 0 0 0 0 0 0 0 0 0 0 0 0 0 0 0 0 0 0 0 0 6 0 3 3 10 6 3 6 6 3 0 0 0 0 0 0 0 0 0 0 0 0
0 0 0 0 0 0 0 0 0 0 0 0 0 0 0 0 0 0 0 0 0 0 0 0 0 0 0 3 3 3 3 3 6 6 6 6 6 3 0 0 0 0 0 0 0 0 0 0 0
0 0 0 0 0 0 0 0 0 0 0 0 0 0 0 0 0 0 0 0 0 0 0 0 0 0 0 0 3 0 3 0 6 0 6 10 6 3 0 0 0 0 0 0 0 0 0 0 0
0 0 0 0 0 0 0 0 0 0 0 0 0 0 0 0 0 0 0 0 0 0 0 0 0 0 0 0 3 6 10 10 6 6 6 3 0 0 0 0 0 0 0 0 0 0 0 0 0
0 0 0 0 0 0 0 0 0 0 0 0 0 0 0 0 0 0 0 0 0 0 0 0 0 0 0 3 3 6 6 6 6 3 3 0 0 0 0 0 0 0 0 0 0 0 0 0 0
0 0 0 0 0 0 0 0 0 0 0 0 0 0 0 0 0 0 0 0 0 0 0 0 0 0 0 3 3 3 0 3 6 3 3 3 3 0 0 0 0 0 0 0 0 0 0 0 0
0 0 0 0 0 0 0 0 0 0 0 0 0 0 0 0 0 0 0 0 0 0 0 0 0 0 0 0 0 0 0 0 6 3 3 0 0 0 0 0 0 0 0 0 0 0 0 0 0
0 0 0 0 0 0 0 0 0 0 0 0 0 0 0 0 0 0 0 0 0 0 0 0 0 0 0 0 0 0 0 0 3 0 0 0 0 0 0 0 0 0 0 0 0 0 0 0 0
0 0 0 0 0 0 0 0 0 0 0 0 0 0 0 0 0 0 0 0 0 0 0 0 0 0 0 0 0 0 0 0 0 0 0 0 0 0 0 0 0 0 0 0 0 0 0 0 0
0 0 0 0 0 0 0 0 0 0 0 0 0 0 0 0 0 0 0 0 0 0 0 0 0 0 0 0 0 0 0 0 0 0 0 0 0 0 0 0 0 0 0 0 0 0 0 0 0
0 0 0 0 0 0 0 0 0 0 0 0 0 0 0 0 0 0 0 0 0 0 0 0 0 0 3 3 0 0 0 0 0 0 0 0 0 0 0 0 0 0 0 0 0 0 0 0 0
0 0 0 0 0 0 0 0 0 0 0 0 0 0 0 0 0 0 0 0 0 0 0 0 0 0 0 0 0 0 0 0 0 0 0 0 0 0 0 0 0 0 0 0 0 0 0 0 0
Height
5923 5923 5923 5924 5924 5924 5923 5922 5921 5921 5921 5920 5919 5919 5918 5918 5918 5920 5918 5916 5917 5917 5917 5917 5916 5916 5916 5916 5916 5915 5914 5914 5913 5913 5912 5911 5911 5911 5911 5910 5910 5910 5910 5910 5910 5910 5910 5910 5910
5923 5924 5925 5925 5924 5924 5924 5923 5922 5922 5921 5921 5920 5920 5920 5919 5918 5917 5917 5917 5918 5918 5918 5918 5918 5918 5918 5918 5917 5917 5916 5915 5915 5914 5913 5913 5912 5911 5911 5911 5910 5910 5910 5910 5910 5910 5910 5909 5909
5924 5924 5926 5926 5925 5925 5924 5923 5923 5923 5922 5922 5922 5921 5921 5920 5918 5918 5918 5918 5918 5919 5919 5919 5919 5919 5919 5919 5919 5918 5918 5917 5916 5915 5914 5914 5913 5912 5912 5911 5911 5910 5910 5910 5909 5909 5909 5909 5908
5926 5926 5927 5926 5925 5925 5924 5924 5924 5924 5924 5923 5923 5922 5922 5921 5919 5919 5919 5919 5919 5920 5920 5920 5920 5920 5920 5920 5920 5919 5919 5918 5917 5916 5915 5915 5914 5913 5912 5912 5911 5911 5910 5909 5909 5909 5908 5908 5908
5926 5927 5927 5926 5925 5925 5925 5925 5925 5925 5924 5924 5923 5923 5923 5922 5920 5919 5919 5920 5920 5920 5920 5920 5921 5921 5921 5921 5921 5920 5919 5919 5918 5917 5916 5915 5915 5914 5913 5912 5911 5911 5910 5909 5909 5908 5908 5907 5907
5927 5927 5927 5926 5925 5925 5925 5925 5925 5925 5925 5924 5924 5924 5923 5923 5921 5920 5920 5920 5920 5920 5920 5921 5921 5921 5921 5921 5921 5920 5920 5919 5918 5918 5917 5916 5915 5914 5913 5912 5911 5911 5910 5909 5908 5908 5907 5907 5906
5927 5926 5926 5926 5925 5925 5925 5925 5925 5925 5925 5925 5924 5924 5923 5923 5922 5921 5920 5920 5920 5920 5920 5920 5920 5921 5921 5921 5920 5920 5920 5919 5918 5918 5917 5916 5915 5914 5913 5912 5911 5910 5909 5909 5908 5907 5907 5906 5906
5926 5927 5925 5925 5924 5924 5924 5924 5924 5925 5925 5925 5924 5924 5923 5923 5923 5921 5920 5920 5920 5920 5920 5920 5920 5920 5920 5920 5920 5919 5919 5918 5918 5917 5916 5915 5914 5914 5913 5912 5911 5910 5909 5908 5907 5907 5906 5906 5905
5926 5927 5925 5924 5924 5924 5923 5923 5924 5924 5924 5924 5924 5923 5923 5923 5922 5922 5921 5920 5920 5920 5920 5919 5919 5919 5919 5918 5918 5918 5917 5917 5916 5915 5915 5914 5913 5912 5912 5911 5910 5909 5908 5908 5907 5906 5906 5905 5904
5925 5925 5925 5924 5924 5923 5923 5922 5922 5922 5922 5922 5922 5922 5922 5921 5921 5921 5921 5920 5919 5919 5918 5918 5918 5917 5917 5917 5916 5916 5915 5915 5914 5913 5912 5912 5911 5911 5910 5909 5909 5908 5907 5906 5906 5905 5905 5904 5904
5923 5924 5923 5923 5923 5922 5922 5921 5920 5919 5920 5920 5920 5919 5919 5919 5919 5919 5919 5919 5918 5917 5916 5916 5915 5915 5915 5915 5914 5913 5913 5912 5912 5911 5910 5909 5908 5908 5908 5907 5907 5906 5905 5905 5904 5904 5904 5903 5903
5922 5922 5922 5921 5920 5920 5920 5919 5918 5917 5916 5916 5916 5916 5916 5915 5915 5915 5916 5916 5916 5916 5915 5914 5913 5912 5911 5911 5911 5910 5910 5909 5909 5908 5907 5906 5905 5905 5905 5904 5904 5903 5903 5903 5902 5902 5902 5902 5901
5920 5920 5919 5918 5917 5917 5916 5916 5915 5914 5913 5912 5912 5911 5911 5911 5910 5911 5911 5912 5912 5912 5912 5911 5911 5910 5909 5908 5907 5907 5906 5906 5905 5905 5904 5903 5902 5901 5901 5901 5901 5900 5900 5900 5899 5899 5899 5899 5899
5917 5916 5915 5915 5914 5913 5913 5912 5912 5910 5908 5907 5907 5906 5906 5906 5905 5905 5905 5906 5906 5906 5907 5907 5906 5906 5906 5904 5904 5903 5902 5901 5901 5900 5900 5900 5899 5898 5897 5897 5897 5897 5896 5897 5896 5896 5896 5896 5896
5913 5913 5912 5911 5910 5910 5909 5908 5907 5905 5903 5901 5900 5899 5899 5899 5898 5898 5898 5899 5899 5899 5899 5900 5900 5900 5901 5900 5900 5899 5898 5897 5896 5896 5895 5896 5895 5895 5894 5893 5892 5892 5892 5892 5892 5892 5892 5893 5893
5910 5909 5908 5907 5905 5905 5905 5903 5901 5899 5897 5895 5893 5893 5892 5892 5892 5891 5891 5891 5892 5892 5892 5892 5893 5894 5894 5894 5894 5894 5893 5892 5891 5890 5890 5890 5890 5890 5890 5889 5888 5888 5887 5887 5887 5888 5888 5888 5889
5905 5904 5903 5902 5900 5898 5898 5896 5894 5892 5890 5889 5887 5886 5886 5885 5885 5884 5883 5883 5883 5884 5884 5885 5885 5886 5886 5887 5887 5887 5887 5887 5885 5884 5884 5884 5884 5884 5884 5884 5883 5883 5883 5883 5883 5884 5884 5884 5884
5901 5899 5897 5895 5893 5892 5890 5888 5886 5883 5882 5881 5879 5878 5878 5877 5876 5876 5875 5875 5875 5875 5875 5876 5877 5877 5878 5878 5879 5880 5880 5880 5879 5878 5877 5878 5878 5877 5877 5877 5878 5877 5877 5878 5878 5879 5879 5879 5879
5896 5894 5892 5889 5887 5884 5882 5880 5878 5876 5874 5872 5870 5869 5868 5868 5867 5866 5866 5866 5865 5865 5865 5866 5867 5868 5869 5870 5870 5871 5872 5871 5872 5872 5871 5870 5870 5870 5870 5870 5871 5871 5871 5871 5872 5872 5873 5873 5874
5890 5888 5886 5883 5880 5877 5874 5872 5870 5867 5865 5863 5861 5859 5858 5857 5857 5856 5855 5855 5855 5855 5855 5855 5856 5858 5859 5860 5861 5862 5863 5863 5863 5864 5863 5862 5862 5864 5864 5864 5864 5865 5865 5865 5865 5866 5866 5867 5867
5884 5883 5880 5878 5874 5870 5866 5863 5861 5858 5855 5853 5851 5849 5848 5847 5846 5845 5845 5844 5844 5845 5845 5845 5846 5847 5849 5850 5851 5852 5853 5854 5855 5855 5855 5854 5854 5855 5856 5857 5857 5857 5858 5858 5858 5859 5859 5860 5861
5880 5877 5874 5871 5867 5864 5860 5856 5853 5849 5847 5844 5841 5839 5838 5836 5835 5835 5834 5834 5833 5834 5834 5835 5836 5837 5838 5840 5841 5842 5844 5845 5846 5846 5846 5846 5846 5847 5847 5848 5848 5849 5850 5850 5851 5851 5852 5852 5853
5875 5871 5868 5864 5860 5856 5852 5848 5845 5841 5838 5835 5832 5830 5828 5827 5825 5824 5824 5823 5823 5823 5824 5825 5826 5827 5828 5830 5831 5833 5834 5836 5837 5837 5837 5837 5838 5839 5839 5839 5840 5841 5841 5842 5843 5843 5844 5845 5846
5869 5866 5861 5858 5853 5849 5845 5841 5836 5832 5829 5827 5824 5822 5819 5818 5816 5814 5814 5813 5814 5814 5815 5816 5817 5818 5819 5821 5822 5823 5825 5826 5827 5828 5829 5829 5830 5831 5830 5830 5831 5832 5833 5834 5835 5835 5836 5837 5838
5865 5861 5857 5851 5847 5843 5839 5834 5830 5826 5822 5819 5817 5815 5812 5810 5808 5807 5806 5805 5805 5805 5806 5807 5809 5810 5811 5812 5813 5814 5815 5817 5818 5819 5820 5821 5822 5822 5822 5823 5823 5823 5823 5825 5826 5827 5828 5829 5830
5861 5857 5853 5848 5842 5838 5834 5830 5826 5822 5818 5814 5811 5809 5807 5804 5802 5800 5799 5798 5797 5798 5798 5800 5801 5802 5803 5804 5805 5806 5807 5808 5809 5810 5811 5812 5813 5814 5815 5815 5815 5815 5816 5817 5819 5819 5820 5821 5822
5858 5853 5849 5844 5839 5835 5832 5827 5823 5819 5815 5811 5808 5805 5802 5799 5797 5796 5794 5793 5792 5792 5793 5793 5794 5795 5796 5797 5797 5798 5799 5800 5801 5802 5803 5804 5805 5806 5807 5807 5808 5808 5809 5810 5810 5811 5813 5814 5815
5857 5851 5847 5842 5837 5834 5830 5826 5823 5819 5815 5811 5807 5804 5800 5797 5795 5793 5791 5790 5789 5789 5789 5789 5789 5790 5790 5791 5791 5792 5793 5793 5794 5795 5796 5797 5797 5798 5799 5799 5800 5801 5801 5802 5803 5803 5805 5806 5808
5856 5851 5846 5841 5837 5834 5830 5829 5823 5819 5815 5811 5808 5804 5801 5797 5795 5792 5790 5789 5787 5786 5786 5786 5786 5786 5786 5786 5786 5787 5787 5788 5788 5789 5789 5790 5791 5791 5792 5793 5793 5794 5795 5795 5796 5797 5799 5800 5802
5855 5851 5846 5842 5838 5834 5831 5831 5823 5820 5817 5813 5810 5806 5802 5799 5796 5793 5791 5789 5787 5786 5785 5785 5784 5784 5784 5784 5784 5784 5784 5784 5784 5784 5784 5785 5785 5786 5786 5787 5788 5788 5789 5790 5791 5792 5793 5795 5796
Wind_Speed
7 7 7 6 5 6 6 8 9 10 10 11 10 10 9 7 5 5 7 8 8 8 9 9 9 9 10 10 10 10 10 9 9 9 9 8 8 7 6 5 4 3 3 4 6 7 8 9 10
6 5 5 4 4 4 5 8 9 10 10 10 9 9 9 7 5 5 7 7 7 7 8 8 8 8 8 8 8 8 8 8 8 8 8 8 7 7 6 5 4 3 1 2 3 5 7 8 9
4 4 4 2 2 3 5 7 8 9 9 9 9 9 8 7 5 5 5 6 6 6 6 6 7 7 6 6 6 6 7 7 7 7 7 7 7 7 6 5 4 3 1 1 2 4 6 7 8
3 3 2 1 1 3 4 6 7 8 8 7 8 8 7 6 5 4 4 5 4 5 4 5 5 5 4 4 4 4 4 5 5 5 6 6 6 6 6 5 4 3 2 1 2 3 4 5 6
2 1 3 3 1 2 4 6 7 7 6 5 6 6 6 6 4 4 3 3 3 3 3 3 2 2 2 2 2 2 2 3 4 4 4 4 4 5 5 5 4 4 3 3 3 3 4 4 5
2 3 5 3 1 2 3 4 4 4 4 3 4 4 5 5 4 3 2 3 2 2 2 1 0 0 1 1 2 2 3 3 4 4 4 4 4 4 4 4 4 4 4 4 4 4 4 4 4
4 5 5 3 2 2 2 3 2 2 2 2 3 3 3 3 3 2 2 1 1 2 2 2 2 2 2 3 3 4 4 5 6 6 6 6 5 5 5 4 4 5 5 5 5 5 4 4 4
6 5 7 6 5 4 4 5 5 4 4 4 4 4 4 3 2 2 2 1 1 2 3 3 3 3 4 4 5 6 6 7 8 8 8 8 7 7 6 6 6 6 6 6 6 5 5 5 4
8 7 7 7 6 5 6 8 8 7 7 7 7 7 7 5 4 3 3 4 4 4 5 5 6 6 6 6 7 7 8 8 9 10 10 10 10 9 9 8 8 8 8 7 7 6 6 5 5
10 9 9 9 8 8 9 11 12 11 10 9 10 10 10 9 8 6 5 6 7 8 8 8 8 8 8 8 9 9 9 10 10 10 11 12 12 12 12 11 10 10 10 9 8 7 7 6 6
12 11 11 11 11 10 12 13 14 15 14 14 14 14 14 13 12 11 10 9 10 11 11 12 11 11 11 11 11 11 11 11 11 12 12 13 14 14 14 14 13 13 12 11 10 9 8 7 7
13 13 13 13 14 14 15 16 16 17 18 18 18 17 17 17 17 16 15 14 13 13 13 14 14 14 14 14 13 13 13 13 14 13 13 14 15 15 15 15 15 15 14 14 13 11 10 9 8
13 14 14 15 16 17 17 18 18 19 21 21 21 21 21 21 21 21 20 18 18 17 16 16 16 17 17 16 16 16 16 16 16 16 15 15 16 16 17 17 17 17 17 16 15 14 13 12 10
14 15 16 17 18 19 20 20 21 22 23 24 25 25 25 24 24 24 23 22 22 21 20 19 18 18 18 18 18 19 19 18 18 18 17 17 17 18 18 19 19 19 19 18 18 16 15 14 13
17 17 19 20 20 21 21 22 23 24 25 26 27 28 28 27 27 27 27 25 25 25 24 23 21 21 20 20 20 20 20 20 20 19 19 19 18 18 19 20 20 20 20 20 19 19 18 17 16
19 20 21 22 23 23 24 25 26 26 27 28 29 30 30 30 30 30 30 29 29 28 27 26 26 25 25 24 23 23 23 23 23 22 21 21 20 19 19 20 20 21 21 21 21 21 20 20 19
21 22 24 25 25 26 27 28 29 30 31 31 32 32 32 33 33 33 33 33 32 32 31 30 29 29 28 27 26 26 26 26 26 25 24 22 22 21 21 21 21 21 21 21 21 22 22 22 21
22 23 25 26 27 28 29 30 32 32 32 33 34 35 35 35 36 36 36 37 36 36 35 34 33 32 31 30 29 29 28 28 29 28 27 26 25 24 23 22 22 22 22 22 22 22 23 23 23
22 23 25 27 29 30 32 32 33 35 35 37 38 37 38 38 38 38 39 39 40 39 38 38 37 35 34 33 32 32 31 32 31 31 30 30 28 26 25 24 24 23 22 23 24 24 24 24 25
23 23 24 27 29 31 32 33 35 36 38 39 39 39 39 38 38 38 39 40 41 41 42 42 41 39 37 35 34 34 34 33 33 32 32 32 29 27 25 26 25 24 23 24 25 25 25 26 26
21 22 23 25 27 30 33 35 36 37 39 39 39 40 40 39 38 38 39 40 40 40 41 42 42 41 40 38 37 36 35 35 34 33 33 33 31 29 28 27 27 26 26 25 24 25 26 27 27
20 21 22 24 27 29 32 34 34 36 37 38 39 40 39 38 36 36 37 38 39 40 41 41 42 41 40 40 39 38 36 35 35 35 35 33 32 32 30 28 28 28 28 26 26 26 26 28 28
19 21 22 24 26 27 28 30 32 33 34 35 36 36 36 37 36 35 34 34 35 36 37 38 38 39 39 40 39 38 37 36 36 36 36 35 34 33 32 31 29 29 29 27 27 27 26 27 28
19 20 21 21 21 22 24 26 28 29 29 30 31 31 31 32 33 32 30 31 32 32 33 34 35 36 37 38 38 38 38 37 36 36 36 35 34 34 33 32 31 30 29 28 28 29 29 28 28
18 18 19 18 18 18 19 21 22 23 24 25 26 26 27 28 28 27 26 26 27 28 29 31 32 34 35 35 36 36 37 36 36 36 36 35 34 33 32 32 31 31 30 30 29 28 29 29 28
16 16 16 16 15 14 15 16 17 18 19 19 20 21 21 22 22 23 22 21 22 24 26 27 29 30 31 32 33 34 34 34 34 34 33 33 32 32 32 32 31 30 30 30 30 29 28 28 28
15 16 17 16 14 13 13 13 13 14 15 15 15 16 17 17 18 18 17 16 16 17 19 22 24 24 25 27 28 30 30 30 31 31 31 31 31 31 30 31 30 30 30 29 29 28 28 28 28
16 17 17 16 14 12 12 12 12 12 12 13 13 12 13 13 13 12 11 11 12 13 14 16 18 20 21 22 23 23 25 26 26 26 26 28 28 28 27 27 28 27 27 27 27 27 27 26 26
16 17 16 16 14 12 12 12 12 12 14 14 14 13 12 11 10 10 10 10 10 10 11 11 12 13 14 15 16 17 18 20 21 22 22 22 23 23 24 24 24 23 22 22 22 23 23 23 24
17 17 17 16 15 14 13 14 13 14 15 15 15 15 14 14 13 12 11 9 8 6 5 5 5 6 7 8 10 11 12 13 14 15 15 16 17 18 19 18 18 18 18 18 18 17 18 19 20
Wind_Direction
86 83 76 65 63 63 61 64 62 61 61 60 55 50 55 62 76 96 102 107 104 99 95 92 88 84 79 74 70 67 64 63 62 61 61 62 62 64 68 77 90 114 148 178 199 212 221 227 229
86 80 72 62 71 74 65 67 64 61 59 61 57 53 53 63 74 91 106 115 112 107 101 98 94 90 85 79 73 69 66 63 60 59 58 58 58 59 60 63 69 79 111 180 206 220 230 236 238
78 73 61 37 97 81 73 71 67 63 59 55 53 51 51 60 66 83 104 118 118 114 108 102 98 92 89 84 79 72 66 62 58 55 54 54 54 54 54 53 52 51 44 253 236 237 240 245 247
61 43 8 326 105 95 79 72 70 63 58 56 56 53 54 59 64 74 96 117 126 123 116 109 102 93 84 79 77 70 60 54 50 47 44 44 45 45 45 42 39 34 17 327 277 262 256 257 258
79 327 289 292 346 65 68 66 65 62 56 54 53 50 55 60 63 67 87 113 134 139 130 122 110 97 80 62 53 45 33 26 24 23 23 24 27 31 30 28 23 18 7 343 313 293 282 273 269
188 268 276 286 346 7 35 49 65 72 59 45 40 45 51 56 61 59 81 106 126 152 159 169 186 302 330 336 334 333 333 334 337 341 343 348 357 4 7 8 6 2 353 340 328 320 310 299 288
226 269 279 295 310 325 325 337 351 10 13 357 352 0 16 27 43 40 37 78 135 199 218 235 259 276 285 293 300 304 307 309 312 314 316 316 318 327 334 340 341 340 339 335 330 328 325 318 304
229 261 285 293 284 285 301 299 303 308 305 302 312 321 324 337 351 351 330 315 266 245 247 252 260 270 277 283 288 292 297 300 301 302 302 301 300 302 308 315 317 318 319 321 323 324 322 323 318
235 239 264 278 279 280 298 296 299 299 296 296 300 299 298 299 300 301 295 289 281 269 265 265 266 268 273 277 281 285 289 293 295 294 293 291 291 291 293 297 301 304 305 306 311 313 313 316 319
244 244 251 264 267 280 292 295 299 299 295 291 289 285 282 283 282 280 278 281 280 276 272 270 270 271 273 274 276 279 282 285 287 288 287 285 285 285 286 288 290 292 294 295 298 301 304 307 310
252 252 259 268 272 279 287 290 293 295 294 288 283 279 278 278 276 275 275 273 276 278 277 275 273 273 273 272 273 275 278 279 280 281 282 282 282 281 280 281 283 285 286 286 287 288 291 295 298
259 261 266 268 271 274 280 282 285 288 288 286 285 281 278 277 276 275 275 274 271 269 270 272 272 272 273 272 273 274 276 278 277 276 276 278 279 278 277 277 278 279 281 281 280 280 282 283 284
262 264 266 265 265 272 277 279 281 283 283 282 282 280 278 276 276 275 274 273 272 268 265 264 266 269 271 272 274 275 276 277 278 277 276 275 275 276 276 275 275 275 276 276 276 275 276 276 277
255 259 261 264 268 272 275 276 277 278 278 278 278 277 277 276 274 274 273 270 269 268 267 265 262 264 268 270 276 279 279 279 280 280 277 275 274 273 273 272 271 272 272 272 271 270 270 271 274
260 264 265 268 269 272 275 276 274 273 273 272 271 272 272 272 271 271 272 270 269 267 264 263 263 263 265 267 269 273 277 278 278 279 279 276 274 272 271 270 270 270 272 272 271 270 269 269 270
267 270 271 271 271 269 271 274 275 273 270 269 268 269 272 271 271 271 272 273 272 270 268 266 264 263 264 264 266 269 273 275 276 275 275 276 273 271 269 268 268 267 269 269 269 268 268 268 268
276 276 277 275 273 271 272 273 272 271 270 269 269 271 272 272 271 271 271 272 272 271 270 269 268 267 265 263 264 266 269 270 273 274 272 272 273 272 270 268 267 266 264 265 266 265 265 267 268
279 279 280 281 280 280 280 279 278 275 272 272 273 273 271 270 269 270 269 269 269 269 269 268 267 268 268 268 267 266 268 268 271 274 273 271 271 270 269 267 268 267 264 263 263 264 264 265 266
280 281 283 284 283 283 282 281 280 280 278 277 277 277 277 275 273 271 268 268 267 267 266 266 266 265 266 266 267 267 268 268 270 272 273 272 269 267 266 267 267 267 266 265 265 264 263 264 264
286 286 286 285 284 283 282 281 281 280 280 280 278 277 277 277 274 272 270 268 266 265 264 264 264 264 264 265 265 266 267 267 269 271 271 271 270 266 266 266 267 268 269 268 265 263 264 264 263
293 291 289 288 287 285 284 283 282 280 280 279 278 278 279 278 275 273 272 269 266 264 263 262 262 263 263 263 264 264 264 266 266 268 268 268 269 267 269 267 267 268 268 270 268 264 265 265 263
299 297 295 292 288 284 283 281 281 280 279 278 278 277 277 277 275 273 271 269 266 264 262 260 260 261 262 262 262 262 262 264 264 266 266 267 268 267 267 265 266 266 267 267 267 267 269 266 261
304 302 299 295 291 286 284 281 280 280 279 279 278 277 276 276 276 274 273 271 268 264 260 258 258 259 261 261 261 261 261 262 264 265 266 268 268 268 269 266 266 267 266 265 268 266 268 266 262
313 310 307 303 299 293 289 287 286 285 283 280 281 282 282 281 281 278 276 273 267 264 261 259 258 258 258 260 261 262 262 262 263 264 265 266 267 268 270 270 269 272 269 268 268 266 267 264 261
323 321 318 315 311 304 300 295 294 295 294 291 289 289 289 287 285 280 279 275 270 267 263 260 259 260 260 260 261 262 262 262 263 263 265 266 267 268 270 270 271 271 268 268 266 267 265 261 257
337 337 336 332 327 320 317 310 305 307 309 304 301 299 296 293 286 284 283 280 273 268 266 264 263 264 264 262 262 263 263 263 263 264 266 267 267 268 268 268 269 269 266 266 264 264 261 258 254
351 350 350 348 344 339 340 337 327 324 322 321 315 313 312 308 300 297 292 290 282 274 271 268 266 267 267 266 265 265 265 265 266 266 266 266 266 267 267 265 266 264 265 265 264 261 257 254 253
360 360 2 2 0 356 356 355 352 352 350 345 346 342 336 329 321 314 308 306 296 286 282 275 269 269 269 268 266 266 266 265 266 266 266 265 264 262 264 265 261 260 262 262 262 257 255 253 250
9 11 12 13 13 15 13 13 11 13 12 13 13 13 11 8 359 345 334 326 316 307 297 288 281 277 273 271 268 266 265 263 263 264 265 264 262 262 263 263 262 260 259 258 258 256 252 251 248
19 19 20 22 24 27 25 27 25 24 27 24 23 24 25 25 22 16 7 358 350 345 336 322 313 297 288 284 277 276 274 265 263 263 265 266 262 259 257 256 257 255 254 253 252 247 248 247 247